FW4111 Weather Reports


time (UTC)temp
C
wind
direction
speed
KPH
gust
KPH
rain 1hr
cm
rain 24hr
cm
rain mn
cm
humidity
%
barometer
mb
20260506201538 16 201 16.1 33.8 0.00 0.00 0.00 95 1006.8
20260506200013 16 224 20.9 38.6 0.00 0.00 0.00 95 1007.1
20260506194510 16 251 20.9 35.4 0.00 0.00 0.00 96 1007.3
20260506193009 16 187 29.0 41.8 0.00 0.00 0.00 96 1007.5
20260506191504 16 222 30.6 40.2 0.00 0.00 0.00 97 1007.5
20260506190104 16 226 35.4 46.7 0.00 0.00 0.00 97 1007.7
20260506184542 15 226 27.4 45.1 0.00 0.00 0.00 96 1007.8
20260506183041 15 230 32.2 48.3 0.00 0.00 0.00 96 1007.9
20260506181548 15 221 24.1 40.2 0.00 0.00 0.00 96 1008.0
20260506180014 15 256 27.4 43.5 0.00 0.00 0.00 95 1008.2
20260506174510 16 205 29.0 46.7 0.00 0.00 0.00 94 1008.5
20260506173007 16 181 29.0 41.8 0.00 0.00 0.00 93 1008.6
20260506171511 16 179 24.1 43.5 0.00 0.00 0.00 95 1008.6
20260506170112 15 183 20.9 35.4 0.00 0.00 0.00 95 1008.9
20260506164547 15 228 29.0 48.3 0.00 0.00 0.00 95 1009.4
20260506163054 15 224 35.4 53.1 0.00 0.00 0.00 95 1009.8
20260506161542 15 214 30.6 49.9 0.00 0.00 0.00 95 1009.9
20260506160024 15 211 30.6 45.1 0.00 0.00 0.00 95 1010.0
20260506154531 15 229 22.5 45.1 0.00 0.00 0.00 94 1009.9
20260506153027 15 214 25.7 45.1 0.00 0.00 0.00 94 1009.9
20260506151524 15 233 27.4 45.1 0.00 0.00 0.00 94 1010.0
20260506150014 15 233 32.2 53.1 0.00 0.00 0.00 95 1010.1
20260506144504 16 222 33.8 54.7 0.00 0.00 0.00 94 1010.0
20260506143001 16 236 33.8 53.1 0.00 0.00 0.00 94 1010.2
20260506141603 15 222 30.6 53.1 0.00 0.00 0.00 94 1010.0
20260506140059 16 243 25.7 38.6 0.00 0.00 0.00 94 1010.1
20260506134539 16 245 24.1 43.5 0.00 0.00 0.00 94 1010.3
20260506133042 16 215 29.0 41.8 0.00 0.00 0.00 94 1010.5
20260506131533 16 233 24.1 45.1 0.00 0.00 0.00 95 1010.6
20260506130009 15 244 25.7 45.1 0.00 0.00 0.00 95 1010.5
20260506124509 15 248 25.7 40.2 0.00 0.00 0.00 96 1010.4
20260506123009 15 192 22.5 46.7 0.00 0.00 0.00 96 1010.3
20260506121505 15 223 27.4 43.5 0.00 0.00 0.00 97 1010.4
20260506120108 15 238 19.3 35.4 0.00 0.00 0.00 96 1010.4
20260506114550 15 167 20.9 38.6 0.00 0.00 0.00 96 1010.6
20260506113046 15 217 29.0 45.1 0.00 0.00 0.00 96 1010.7
20260506111544 15 224 25.7 43.5 0.00 0.00 0.00 97 1010.7
20260506110045 15 214 27.4 45.1 0.00 0.00 0.00 97 1010.5
20260506104546 14 236 27.4 41.8 0.00 0.00 0.00 97 1010.5
20260506103020 -17 0.0 0.0 0.00 0.00 0.00 1010.5
20260506101526 -17 0.0 0.0 0.00 0.00 0.00 1010.5
20260506100004 -17 0.0 0.0 0.00 0.00 0.00 1010.3
20260506094508 -17 230 35.4 49.9 0.00 0.00 0.00 1010.3
20260506093006 14 217 27.4 41.8 0.00 0.00 0.00 98 1010.4
20260506091505 14 238 35.4 49.9 0.00 0.00 0.00 98 1010.4
20260506090107 14 233 35.4 53.1 0.00 0.00 0.00 98 1010.5
20260506084547 14 223 38.6 51.5 0.00 0.00 0.00 98 1010.6
20260506083047 14 226 37.0 51.5 0.00 0.00 0.00 98 1010.6
20260506081542 14 226 33.8 48.3 0.00 0.00 0.00 97 1010.7
20260506073018 15 221 33.8 43.5 0.00 0.00 0.00 96 1010.9
20260506071520 15 222 32.2 41.8 0.00 0.00 0.00 96 1011.0
20260506070117 15 210 32.2 43.5 0.00 0.00 0.00 95 1010.9
20260506061552 15 236 29.0 46.7 0.00 0.00 0.00 94 1010.8
20260506050118 15 219 43.5 51.5 0.00 0.00 0.00 94 1011.4
20260506044611 15 218 37.0 54.7 0.00 0.00 0.00 94 1011.4
20260506043058 15 228 33.8 53.1 0.00 0.00 0.00 93 1011.4
20260506041600 15 214 38.6 53.1 0.00 0.00 0.00 93 1011.3
20260506040057 15 230 38.6 56.3 0.00 0.00 0.00 92 1011.3
20260506034538 15 246 40.2 56.3 0.00 0.00 0.00 92 1011.4
20260506033036 15 242 40.2 54.7 0.00 0.00 0.00 92 1011.5
20260506031534 15 246 35.4 51.5 0.00 0.00 0.00 92 1011.4
20260506030010 16 247 35.4 51.5 0.00 0.00 0.00 91 1011.5
20260506024520 16 230 41.8 54.7 0.00 0.00 0.00 91 1011.5
20260506023005 16 236 35.4 53.1 0.00 0.00 0.00 90 1011.7
20260506021503 16 240 40.2 59.5 0.00 0.00 0.00 90 1011.8
20260506020105 16 227 37.0 53.1 0.00 0.00 0.00 91 1011.7
20260506014545 16 231 37.0 54.7 0.00 0.00 0.00 90 1011.8
20260506013045 16 242 37.0 54.7 0.00 0.00 0.00 90 1011.7
20260506011545 16 213 35.4 51.5 0.00 0.00 0.00 90 1011.6
20260506010019 16 211 38.6 49.9 0.00 0.00 0.00 89 1011.4
20260506004515 16 240 38.6 57.9 0.00 0.00 0.00 89 1011.2
20260506003012 17 234 43.5 54.7 0.00 0.00 0.00 89 1011.1
20260506001513 17 244 40.2 57.9 0.00 0.00 0.00 86 1011.0
20260506000116 17 232 43.5 54.7 0.00 0.00 0.00 88 1010.6
20260505234613 17 99 35.4 51.5 0.00 0.00 0.00 88 1010.5
20260505233057 17 231 32.2 54.7 0.00 0.00 0.00 87 1010.5
20260505231554 17 241 48.3 61.2 0.00 0.00 0.00 85 1010.4
20260505230052 18 238 49.9 61.2 0.00 0.00 0.00 84 1010.4
20260505224533 18 237 45.1 57.9 0.00 0.00 0.00 84 1010.1
20260505223032 18 220 48.3 61.2 0.00 0.00 0.00 84 1010.2
20260505221527 18 225 46.7 57.9 0.00 0.00 0.00 85 1010.1
20260505220008 17 196 35.4 54.7 0.00 0.00 0.00 87 1009.9
20260505214505 17 216 37.0 57.9 0.00 0.00 0.00 86 1009.6
20260505213001 17 246 32.2 49.9 0.00 0.00 0.00 86 1009.7
20260505211635 17 230 32.2 54.7 0.00 0.00 0.00 86 1009.5
20260505210059 17 199 32.2 59.5 0.00 0.00 0.00 86 1009.5
20260505204539 18 256 37.0 57.9 0.00 0.00 0.00 84 1009.3
20260505203049 17 233 27.4 49.9 0.00 0.00 0.00 85 1009.4